sat.trackr.live / text

‹ back to catalog

GAOFEN-1 04

NORAD 43262 · 2018-031D

PAYLOAD ACTIVE UNKNOWN

§ Identity

Operator
Country
PRC
Launch date
2018-03-31
Launch site
TAISC
Launch vehicle
Mass (kg)
RCS (m²)

Purposes: earth_obs

External: N2YO · Heavens-Above · Gunter

§ Orbital elements

Epoch: 2026-09-20T04:46:39.597024Z

Period
97.53 min
Inclination
98.0433°
Eccentricity
0.0002482
Mean motion
14.76446542 rev/d
Perigee alt
638.8 km
Apogee alt
642.3 km
Semi-major
7,018.7 km
B*
4.9457e-5
RAAN
325.4616°
Arg perigee
96.6031°
Mean anomaly
263.5461°
Rev number
45,670

§ Raw data

GAOFEN-1 041 43262U 18031D   26263.19906941  .00000293  00000+0  49457-4 0  99942 43262  98.0433 325.4616 0002482  96.6031 263.5461 14.76446542456706

JSON: /api/v1/satellites/43262 · /tle

For live sub-satellite position, see the globe view (requires WebGL).

§ Visibility from observer

Set your observer location to see the next 7 days of passes ≥ 10°. The values pass through the URL so the page stays shareable.

No JS? Fill the form by hand. The geolocation button needs JavaScript.